This is the latest recevied weather packets stored in our database for station/object DL9GRB-13. If no packets are shown the sender has not sent any weather packets the latest 10 day(s).
| Time | Temp. | Humidity | Pressure | Rain* | Wind** | Luminosity | Snow |
|---|---|---|---|---|---|---|---|
| 1777702927 | 16.67° C | 56% | 1019.3 hPa | 0 mm | - | 201 W/m² | - |
| 1777702747 | 16.11° C | 55% | 1019.5 hPa | 0 mm | - | 186 W/m² | - |
| 1777702567 | 16.11° C | 57% | 1019.5 hPa | 0 mm | - | 171 W/m² | - |
| 1777702387 | 15.56° C | 57% | 1019.5 hPa | 0 mm | - | 159 W/m² | - |
| 1777702207 | 15.56° C | 58% | 1019.7 hPa | 0 mm | - | 148 W/m² | - |
| 1777702027 | 15.56° C | 58% | 1019.5 hPa | 0 mm | - | 139 W/m² | - |
| 1777701847 | 15.56° C | 58% | 1019.5 hPa | 0 mm | - | 132 W/m² | - |
| 1777701667 | 15° C | 58% | 1019.6 hPa | 0 mm | - | 126 W/m² | - |
| 1777701487 | 15° C | 59% | 1019.6 hPa | 0 mm | - | 120 W/m² | - |
| 1777701307 | 14.44° C | 59% | 1019.6 hPa | 0 mm | - | 114 W/m² | - |
| 1777701127 | 14.44° C | 59% | 1019.6 hPa | 0 mm | - | 109 W/m² | - |
| 1777700947 | 14.44° C | 60% | 1019.6 hPa | 0 mm | - | 103 W/m² | - |
| 1777700767 | 14.44° C | 59% | 1019.5 hPa | 0 mm | - | 96 W/m² | - |
| 1777700587 | 13.89° C | 60% | 1019.7 hPa | 0 mm | - | 90 W/m² | - |
| 1777700407 | 13.89° C | 60% | 1019.8 hPa | 0 mm | - | 85 W/m² | - |
| 1777700227 | 13.89° C | 61% | 1019.7 hPa | 0 mm | - | 84 W/m² | - |
| 1777700047 | 13.89° C | 61% | 1019.7 hPa | 0 mm | - | 84 W/m² | - |
| 1777699867 | 13.33° C | 61% | 1019.8 hPa | 0 mm | - | 85 W/m² | - |
| 1777699687 | 13.33° C | 61% | 1019.7 hPa | 0 mm | - | 85 W/m² | - |
| 1777699507 | 13.33° C | 61% | 1019.7 hPa | 0 mm | - | 84 W/m² | - |
| 1777699327 | 13.33° C | 62% | 1019.8 hPa | 0 mm | - | 82 W/m² | - |
| 1777699147 | 12.78° C | 63% | 1019.8 hPa | 0 mm | - | 80 W/m² | - |
| 1777698967 | 12.78° C | 63% | 1019.7 hPa | 0 mm | - | 78 W/m² | - |
| 1777698787 | 12.78° C | 63% | 1019.7 hPa | 0 mm | - | 76 W/m² | - |
| 1777698607 | 12.78° C | 63% | 1019.7 hPa | 0 mm | - | 74 W/m² | - |
* Rain latest hour (hover to see other rain measurements)
** Current wind speed in m/s (hover to see current wind gust speed)